Retour au catalogue

FENGYUN 1C DEB

ActifPO
NORAD 31987·DEBRIS·🇨🇳 China

Lancé May 10, 1999 depuis Taiyuan Satellite Launch Center

Loading…

Prochains Passages (prochaines 24 heures)

TLE

FraisSource: Space-Track

Époque: Sep 14, 2026, 05:44 UTC

1 31987U 99025CPQ 26257.23945215  .00002017  00000-0  56312-3 0  9996
2 31987  99.0579 254.1691 0051762  59.5993 313.8429 14.46667830  3455

Suivez FENGYUN 1C DEB en temps réel avec AllMySat

Download on the App Store